User: anonymous   Login
Location: Unspecified
(10.5000°N, 0.0000°E)
Time: 14:09:24
(UTC+00:00)
Language:

Envisat - Orbit

View from above orbital plane
View from above orbital plane
View from above satellite
View from above satellite

Ground track
Ground track

The orbit data is extracted from the following two-line orbital elements,

1 27386U 02009A   19197.07629076 -.00000007  00000-0  11064-4 0  9995
2 27386  98.1479 216.7011 0001388  94.9862 282.2351 14.37952639910138
Epoch (UTC): 16 July 2019 01:49:51
Eccentricity: 0.0001388
inclination: 98.1479°
perigee height: 764 km
apogee height: 766 km
right ascension of ascending node: 216.7011°
argument of perigee: 94.9862°
revolutions per day: 14.37952639
mean anomaly at epoch: 282.2351°
orbit number at epoch: 91013

The dashed part of the orbit path shows where the satellite is in the earth's shadow,  

DLR